Regional Weather Roundup
Issued by NWS

Home | Current Version | Previous Version | Graphics & Text | Print | Product List | Glossary On
Versions: 1 2 3 4 5 6 7 8 9 10 11 12 13 14 15 16 17 18 19 20 21 22 23 24 25 26 27 28 29 30 31 32 33 34 35 36 37 38 39 40 41 42 43 44 45 46 47 48 49 50
455
ASUS43 KOAX 231410
RWRNE

WEATHER ROUNDUP FOR NEBRASKA
NATIONAL WEATHER SERVICE OMAHA NE
900 AM CDT SUN JUL 23 2017

NOTES: SATELLITE DATA IS BEING USED TO AUGMENT CLOUD COVER ABOVE
       12000 FEET.
       "FAIR" INDICATES FEW OR NO CLOUDS BELOW 12,000 FEET WITH NO
       SIGNIFICANT WEATHER AND/OR OBSTRUCTIONS TO VISIBILITY.


NEZ001>004-019>022-054>056-231500-
NEBRASKA PANHANDLE

CITY           SKY/WX    TMP DP  RH WIND       PRES   REMARKS
SCOTTSBLUFF    SUNNY     68  53  58 E3        30.14R
ALLIANCE       SUNNY     71  52  50 CALM      30.14R
CHADRON        SUNNY     65  48  54 SW3       30.11S
GORDON         FAIR      67  54  63 E5        30.13S
KIMBALL        SUNNY     70  54  56 W6        30.19S
SIDNEY         SUNNY     76  47  35 SW8       30.17R
$$

NEZ057>060-069>072-079>082-231500-
SOUTHWEST NEBRASKA

CITY           SKY/WX    TMP DP  RH WIND       PRES   REMARKS
NORTH PLATTE   SUNNY     68  56  65 CALM      30.09R
IMPERIAL       SUNNY     71  55  56 NW6       30.11R
LEXINGTON      SUNNY     68  64  86 W3        30.07R
MCCOOK         SUNNY     68  57  68 NW5       30.07S
OGALLALA       SUNNY     66  57  71 CALM      30.11S
$$

NEZ005>010-023>029-035>040-094-231500-
NORTH CENTRAL NEBRASKA

CITY           SKY/WX    TMP DP  RH WIND       PRES   REMARKS
VALENTINE      SUNNY     72  48  42 CALM      30.10R
AINSWORTH      SUNNY     69  57  65 CALM      30.09R
BROKEN BOW     SUNNY     72  62  71 N8        30.06R
O`NEILL        MOSUNNY   70  62  76 N7        30.05R
ORD            SUNNY     69  63  81 NW8       30.02R
THEDFORD       SUNNY     73  55  54 NE6       30.10S
$$

NEZ041-046>049-061>064-073>077-083>087-231500-
SOUTH CENTRAL NEBRASKA

CITY           SKY/WX    TMP DP  RH WIND       PRES   REMARKS
GRAND ISLAND   SUNNY     73  68  84 S6        30.03R
AURORA         SUNNY     72  69  89 SW3       30.03S
HASTINGS       SUNNY     73  67  81 W5        30.05R
HEBRON         SUNNY     78  71  81 NW5       30.00S
HOLDREGE       SUNNY     71  64  80 NW3       30.06R
KEARNEY        SUNNY     72  65  78 N5        30.05S
YORK           SUNNY     72  68  88 CALM      30.02S
$$

NEZ011>018-030>034-042>045-231500-
NORTHEAST NEBRASKA

CITY           SKY/WX    TMP DP  RH WIND       PRES   REMARKS
NORFOLK        SUNNY     71  64  78 N3        29.99R
ALBION         SUNNY     70  65  82 NW3       30.01R
BLAIR          SUNNY     73  72  96 NE6       29.98R
COLUMBUS       SUNNY     73  66  78 CALM      29.99S
FREMONT        SUNNY     73  67  82 CALM      29.99R
TEKAMAH        SUNNY     75  68  78 CALM      29.96R
WAYNE          SUNNY     74  69  87 NE8       29.98S
$$

NEZ050>053-065>068-078-088>093-231500-
SOUTHEAST NEBRASKA

CITY           SKY/WX    TMP DP  RH WIND       PRES   REMARKS
LINCOLN        SUNNY     75  69  81 S3        29.99S
OMAHA EPPLEY   CLOUDY    71  69  93 N3        29.98R FOG
BEATRICE       SUNNY     77  72  84 NW7       29.98F
FALLS CITY     SUNNY     78  71  79 W8        29.95R
NEBRASKA CITY  SUNNY     76  76 100 CALM      29.97S FOG
PLATTSMOUTH    FOG       73  72  97 CALM      29.97S VSB 3/4
$$

NEZ044-045-051>053-067-231500-
OMAHA AREA

CITY           SKY/WX    TMP DP  RH WIND       PRES   REMARKS
OMAHA EPPLEY   CLOUDY    71  69  93 N3        29.98R FOG
BLAIR          SUNNY     73  72  96 NE6       29.98R
FREMONT        SUNNY     73  67  82 CALM      29.99R
MILLARD        SUNNY     78  72  83 CALM      29.98R
OFFUTT AFB     SUNNY     73  72  98 NW6       29.97R FOG
PLATTSMOUTH    FOG       73  72  97 CALM      29.97S VSB 3/4
WAHOO          FAIR      72  68  88 CALM      29.99R
$$




USA.gov is the U.S. government's official web portal to all federal, state and local government web resources and services.